Theta_e
304 305 304 298 294 298 291 291 290 293 298 305 313 312 320 322 320 324 327 333 336 338 339 339 341 343 346 345 345 343 337 329
304 304 303 302 301 293 291 287 287 291 294 297 303 310 315 318 317 323 327 330 334 337 337 340 343 344 346 348 345 342 332 330
299 298 299 298 294 293 294 291 289 288 293 303 306 311 314 317 320 323 326 329 331 335 336 338 343 344 345 347 344 336 336 330
296 300 302 299 298 297 294 290 290 291 294 307 310 313 316 317 320 324 327 328 330 332 334 334 339 342 344 346 343 339 336 331
291 293 297 297 298 295 294 293 292 292 295 308 308 310 316 317 318 319 322 326 329 330 332 333 336 340 344 345 343 339 336 331
293 293 297 296 299 299 297 292 292 294 298 305 307 308 311 314 316 319 320 323 326 329 331 332 334 338 344 345 344 339 335 332
299 300 300 300 301 300 298 299 298 299 300 305 307 309 311 315 315 317 319 321 325 327 328 330 332 337 344 345 342 340 335 333
294 299 300 299 301 302 302 299 299 298 301 307 311 309 310 314 315 316 317 322 325 326 326 328 332 337 342 343 342 340 336 333
294 296 298 294 300 300 302 304 304 300 303 308 308 310 311 311 314 317 318 321 323 323 324 324 331 338 339 341 342 338 336 334
295 294 290 299 306 306 307 309 310 308 305 311 312 314 312 311 312 312 314 317 321 325 328 329 327 336 338 340 339 337 332 334
292 292 297 304 308 308 304 304 311 309 310 313 314 313 311 314 313 313 314 313 314 318 325 329 333 334 335 334 336 335 332 333
294 291 291 304 310 315 311 299 312 313 311 312 312 308 308 315 315 316 317 319 319 320 325 330 332 334 333 331 333 333 333 332
295 295 299 308 312 314 301 300 310 312 311 311 308 309 313 317 318 318 318 319 323 328 329 331 333 332 327 328 328 329 331 331
297 293 294 311 311 305 308 310 311 311 312 313 312 314 314 316 315 317 320 326 332 330 329 331 331 330 327 325 328 329 330 329
300 299 307 312 309 312 312 308 311 312 313 317 320 318 317 316 317 324 329 329 328 327 326 326 327 328 325 322 324 325 323 322
306 306 308 312 314 315 314 311 311 313 315 314 315 323 323 324 323 325 324 323 324 325 322 319 320 322 321 323 326 325 323 322
306 312 311 312 314 314 315 316 315 314 314 314 314 315 326 325 326 326 324 322 322 321 320 319 321 322 323 323 324 322 320 320
303 308 309 310 314 314 311 311 310 311 311 311 311 311 315 324 327 327 324 323 321 321 321 320 321 321 321 320 322 318 317 317
310 315 311 313 311 313 310 310 310 309 309 308 309 310 312 321 322 321 323 320 322 322 321 319 319 319 320 320 321 317 315 315
Wind_Speed
6 7 11 4 5 10 6 2 4 6 7 9 7 11 19 23 15 18 19 21 23 21 20 19 19 19 19 17 15 12 12 9
13 4 6 13 8 2 2 6 5 4 3 7 6 6 12 15 17 20 20 19 19 19 19 18 20 19 17 16 16 13 11 11
4 8 13 3 4 3 5 5 8 4 8 10 8 8 15 19 22 21 19 19 18 18 19 20 18 17 17 16 16 14 14 12
14 6 3 7 10 10 8 7 1 5 9 3 9 9 14 16 16 14 16 17 19 19 20 17 18 17 17 15 17 16 15 13
9 5 1 5 6 6 3 4 9 8 8 1 4 7 10 11 10 13 15 14 16 14 17 18 17 17 17 16 17 15 15 15
16 9 6 5 6 8 9 5 6 8 7 4 7 9 9 10 11 15 17 19 16 15 18 18 17 16 16 15 16 15 16 17
19 16 6 7 9 7 9 12 11 11 11 10 13 13 16 16 10 12 15 14 16 18 17 16 13 12 14 16 17 19 19 18
8 11 15 12 14 13 17 2 3 6 7 7 10 5 7 12 12 11 11 15 14 12 8 10 12 12 13 15 17 16 18 13
17 6 6 4 11 6 6 5 8 6 11 7 4 7 12 10 11 15 10 9 10 10 9 7 8 11 15 16 13 13 10 9
12 6 6 10 1 7 12 3 2 5 2 11 16 19 6 6 13 9 9 9 8 8 7 9 9 11 9 11 13 11 12 15
8 7 3 4 6 5 7 5 4 5 4 4 7 6 5 1 0 9 9 7 8 7 6 6 9 8 11 10 11 12 16 18
3 9 7 2 10 11 7 4 8 7 4 6 8 10 5 2 4 5 5 4 7 6 6 6 5 9 10 10 10 11 9 10
2 5 2 8 17 8 7 6 10 6 5 2 7 2 0 7 7 4 3 5 6 3 3 1 6 11 8 7 7 5 6 6
3 6 3 14 3 8 1 6 2 5 6 15 10 9 9 8 8 8 8 6 4 5 4 4 7 11 10 9 8 8 8 8
3 5 2 5 5 5 2 4 6 11 7 14 15 10 9 8 9 9 10 8 7 3 7 6 5 9 11 5 8 9 8 7
2 1 3 5 4 5 4 4 5 8 9 11 9 8 10 8 6 5 5 4 3 6 8 5 6 9 11 8 9 10 8 5
2 3 2 6 5 4 7 7 7 9 8 5 8 7 8 5 4 1 3 4 5 7 6 4 8 10 9 8 9 9 7 5
5 4 7 6 4 5 6 7 11 14 13 12 12 11 10 7 3 6 4 3 8 6 8 9 6 6 6 6 7 7 5 3
7 2 11 7 7 6 10 12 13 9 7 7 11 12 11 3 3 3 5 2 3 1 3 5 7 8 7 6 5 4 4 5
Wind_Direction
200 191 150 200 155 195 136 351 117 207 267 324 266 218 211 207 186 198 196 195 197 196 193 195 198 198 193 196 197 185 182 166
249 182 229 192 168 101 352 170 232 260 246 229 288 233 207 193 197 200 199 194 198 196 192 199 201 202 198 193 195 181 170 174
160 201 212 149 175 82 129 140 170 224 257 211 225 209 191 197 199 198 192 194 194 196 196 201 200 197 197 191 185 177 181 168
228 228 196 182 204 174 197 248 166 171 263 247 240 203 191 195 196 192 195 191 195 196 196 195 199 197 195 191 189 184 179 169
322 320 100 171 190 173 123 91 189 155 254 285 234 172 191 185 182 180 198 190 198 195 200 204 199 198 196 191 196 181 174 174
222 219 157 191 189 191 159 152 170 212 217 250 224 191 190 199 176 182 192 196 189 193 204 208 205 196 191 195 194 185 180 180
227 214 195 239 244 182 190 198 176 218 198 217 205 199 198 195 176 168 195 196 195 199 200 203 200 185 189 198 193 189 188 187
219 210 196 223 245 237 223 199 137 129 231 237 201 73 139 189 175 180 179 195 197 202 199 198 194 189 193 199 200 192 194 188
231 181 170 236 230 201 197 164 152 148 216 159 183 196 193 191 190 190 182 172 179 191 185 179 179 177 195 201 197 199 178 153
212 103 194 245 268 186 128 104 88 280 200 184 189 204 206 235 164 165 166 173 191 180 190 208 199 194 179 189 197 170 152 150
161 179 162 332 32 47 358 167 206 197 206 214 109 71 359 127 348 167 168 167 168 171 186 184 183 177 171 182 186 164 164 170
136 143 167 311 327 328 305 335 21 23 68 134 111 169 229 79 78 80 139 145 146 162 184 162 189 157 163 178 181 194 166 180
10 107 90 1 312 291 75 240 330 1 18 79 83 184 320 72 53 49 50 49 65 79 144 100 135 132 122 140 168 142 116 109
334 69 358 344 1 78 300 334 162 61 68 79 86 56 50 47 38 32 31 16 71 93 58 97 152 123 135 138 141 133 125 112
227 172 251 324 39 331 350 306 357 68 66 75 67 63 45 28 7 0 9 9 5 67 80 37 67 118 121 104 103 95 97 112
193 245 132 60 16 19 359 26 28 34 47 55 69 52 73 40 17 33 19 41 39 61 81 63 71 85 107 122 124 119 121 141
35 98 140 59 82 13 354 355 35 39 35 31 48 27 73 84 41 161 144 83 74 86 101 110 121 128 140 139 129 134 153 186
220 198 122 114 2 69 54 35 37 55 27 3 30 38 16 16 18 282 84 156 116 141 164 159 142 137 118 134 133 151 175 124
160 173 94 78 61 66 94 74 58 56 42 25 25 34 7 42 223 167 166 54 34 144 132 147 147 153 170 158 137 140 176 189